[[{"header":{"parameterUnit":"m.s-1","parameterCategory":2,"la1":30.2991,"la2":30.254,"lo1":-89.0895,"lo2":-89.0444,"dy":0.0017,"dx":0.0017,"nx":28,"ny":28,"refTime":"2024-05-16T09:00:00:Z","depth":"0","parameterNumber":2,"parameterNumberName":"U-component_of_CURRENTS"},"data":[0,0,0,0,0,0,0,0,0,0,0,0,0,0,0,0,0,0,0,0,0,0,0,0,0,0,0,0,0,0,0,0,0,0,0,0,0,0,0,0,0,0,0,0,0,0,0,0,0,0,0,0,0,0,0,0,0,0,-0.2829,-0.2829,0,-0.2782,-0.2781,-0.278,-0.2701,-0.27,-0.2699,-0.2698,-0.2603,-0.2601,-0.2599,0,0,0,0,0,0,0,0,0,0,0,0,0,-0.2796,-0.2797,-0.2829,-0.2829,-0.2829,-0.2782,-0.2781,-0.278,-0.2701,-0.27,-0.2699,-0.2698,-0.2603,-0.2601,-0.2599,0,0,0,0,0,0,0,0,0,0,0,0,0,-0.2781,-0.2797,-0.2829,-0.2788,-0.2784,-0.2782,-0.2781,-0.2779,-0.2702,-0.27,-0.2699,-0.2697,-0.2604,-0.2601,-0.2599,-0.2613,0,0,-0.2591,-0.259,0,0,0,0,0,0,0,0,-0.2782,-0.2782,-0.2794,-0.2791,-0.2787,-0.275,-0.2734,-0.2723,-0.2702,-0.2727,-0.2698,-0.2697,-0.2652,-0.2645,-0.2633,-0.2609,-0.2605,-0.2591,-0.259,-0.2589,-0.2588,0,0,0,0,0,0,0,-0.2783,-0.2783,-0.2805,-0.2794,-0.279,-0.2753,-0.2749,-0.2731,-0.2694,-0.2725,-0.2721,-0.2724,-0.2649,-0.2636,-0.263,-0.2603,-0.2591,-0.2589,-0.2588,-0.2587,-0.2605,-0.2607,0,0,0,0,0,0,-0.2804,-0.2785,-0.2807,-0.2804,-0.2786,-0.2756,-0.2751,-0.2759,-0.2695,-0.2685,-0.2725,-0.2721,-0.2641,-0.2633,-0.2627,-0.2656,-0.2589,-0.2586,-0.2585,-0.2603,-0.2605,-0.2608,0,0,0,0,0,0,-0.2804,-0.2807,-0.2809,-0.2797,-0.2795,-0.2759,-0.2768,-0.2759,-0.2746,-0.2696,-0.2685,-0.2722,-0.2639,-0.263,-0.2616,-0.2651,-0.2585,-0.2583,-0.2601,-0.2604,-0.2607,-0.2704,0,0,0,0,0,0,-0.2803,-0.2807,-0.2816,-0.2799,-0.2797,-0.2816,-0.277,-0.276,-0.2753,-0.2746,-0.269,-0.268,-0.2637,-0.262,-0.2614,-0.2646,-0.2581,-0.2598,-0.2602,-0.2606,-0.2698,-0.271,-0.2719,0,0,0,0,0,-0.2802,-0.2829,-0.2816,-0.2819,-0.2811,-0.2818,-0.2813,-0.2777,-0.2755,-0.2758,-0.272,-0.2681,-0.2639,-0.2619,-0.2611,-0.2644,-0.2597,-0.2601,-0.2605,-0.2693,-0.2707,-0.2719,0,0,0,0,0,0,-0.2817,-0.2824,-0.2809,-0.2835,-0.2829,-0.2806,-0.2808,-0.2789,-0.2762,-0.275,-0.2698,-0.2686,-0.2687,-0.2658,-0.2638,-0.2663,-0.2616,-0.2619,-0.2685,-0.2698,-0.2709,-0.2712,-0.2579,0,0,0,0,0,-0.2828,-0.2848,-0.2843,-0.2862,-0.2863,-0.2838,-0.2834,-0.2814,-0.2792,-0.2778,-0.2744,-0.2715,-0.2702,-0.2692,-0.267,-0.2683,-0.2624,-0.2703,-0.2713,-0.2723,-0.2722,-0.2678,-0.2684,-0.2622,-0.2622,-0.2622,0,0,-0.2839,-0.2845,-0.2855,-0.2866,-0.2855,-0.2874,-0.283,-0.2834,-0.2853,-0.2774,-0.2782,-0.2746,-0.2713,-0.2723,-0.2723,-0.27,-0.2707,-0.2728,-0.2736,-0.273,-0.2683,-0.2689,-0.2694,-0.2625,-0.2625,-0.2624,0,0,-0.2876,-0.2876,-0.2904,-0.2906,-0.2906,-0.29,-0.2908,-0.2893,-0.2887,-0.2894,-0.2848,-0.2832,-0.2813,-0.2794,-0.2784,-0.2845,-0.2763,-0.2847,-0.2904,-0.2863,-0.2867,-0.2869,-0.2786,-0.278,-0.2856,-0.2856,-0.2856,0,-0.2885,-0.2924,-0.2912,-0.2937,-0.295,-0.2921,-0.2953,-0.2953,-0.2935,-0.2929,-0.291,-0.2871,-0.285,-0.2854,-0.2883,-0.2869,-0.2813,-0.2856,-0.2874,-0.2876,-0.2877,-0.2791,-0.2783,-0.2861,-0.2861,-0.286,-0.286,0,-0.2937,-0.2969,-0.2987,-0.3014,-0.3024,-0.3049,-0.3052,-0.3058,-0.3049,-0.3029,-0.3023,-0.2986,-0.2956,-0.2964,-0.2946,-0.2956,-0.2901,-0.2888,-0.2837,-0.2889,-0.2795,-0.2785,-0.2869,-0.2867,-0.2865,-0.2864,0,0,-0.2941,-0.3016,-0.3016,-0.3041,-0.3069,-0.3076,-0.3124,-0.314,-0.3135,-0.3127,-0.3115,-0.3123,-0.3073,-0.306,-0.303,-0.301,-0.298,-0.2966,-0.2961,-0.2873,-0.2849,-0.2725,-0.2702,-0.2966,-0.2966,-0.2966,-0.2772,0,-0.2981,-0.3064,-0.3086,-0.3143,-0.3181,-0.318,-0.3212,-0.3212,-0.3201,-0.3176,-0.3148,-0.3119,-0.3121,-0.3092,-0.3083,-0.2992,-0.2962,-0.303,-0.2819,-0.2812,-0.2689,-0.2691,-0.2596,-0.2409,-0.2762,-0.2761,-0.2759,0,-0.3003,-0.3063,-0.3149,-0.3204,-0.3214,-0.3238,-0.3252,-0.3276,-0.3247,-0.3229,-0.3201,-0.315,-0.3123,-0.3113,-0.3002,-0.3041,-0.2966,-0.2899,-0.2889,-0.2733,-0.2672,-0.2419,-0.2378,-0.2361,-0.2744,-0.2745,-0.2746,0,-0.2997,-0.3087,-0.3164,-0.3185,-0.3248,-0.3268,-0.3289,-0.3278,-0.3262,-0.3245,-0.3188,-0.3163,-0.3081,-0.304,-0.2902,-0.2957,-0.273,-0.2784,-0.2597,-0.2585,-0.2441,-0.2417,-0.2349,-0.271,-0.2711,-0.2711,-0.2712,0,-0.3027,-0.3065,-0.3161,-0.3195,-0.322,-0.3268,-0.3265,-0.3274,-0.3251,-0.3154,-0.3198,-0.309,-0.3056,-0.2914,-0.2868,-0.2658,-0.2696,-0.2587,-0.2529,-0.247,-0.2452,-0.2379,-0.2415,-0.2704,-0.2705,-0.2707,-0.2708,0,-0.2986,-0.3072,-0.3127,-0.3211,-0.3217,-0.3223,-0.3227,-0.3173,-0.3207,-0.3079,-0.3062,-0.2991,-0.2819,-0.2737,-0.2586,-0.254,-0.2348,-0.2323,-0.2228,-0.2164,-0.2044,-0.2089,-0.1927,-0.1879,-0.2133,-0.2129,-0.2125,0,-0.2971,-0.3009,-0.3093,-0.3064,-0.3091,-0.3109,-0.3054,-0.3122,-0.3056,-0.2967,-0.2857,-0.2713,-0.253,-0.229,-0.22,-0.2063,-0.2111,-0.1903,-0.2027,-0.2001,-0.201,-0.2057,-0.2035,-0.1863,-0.1858,-0.1854,-0.185,0,-0.2883,-0.2916,-0.2939,-0.2921,-0.2879,-0.2856,-0.2819,-0.277,-0.2761,-0.2676,-0.2487,-0.2365,-0.2153,-0.1964,-0.1812,-0.175,-0.1874,-0.1809,-0.1815,-0.1814,-0.1826,-0.1762,-0.2009,-0.1811,-0.1815,-0.1818,-0.182,-0.1821,-0.2731,-0.2727,-0.2738,-0.2682,-0.2642,-0.2548,-0.2459,-0.2403,-0.2293,-0.2097,-0.2108,-0.1899,-0.1808,-0.1612,-0.1531,-0.1428,-0.155,-0.1446,-0.1501,-0.1549,-0.1517,-0.1654,-0.1381,-0.1383,-0.1384,-0.1385,-0.1386,0,-0.2496,-0.2506,-0.2464,-0.2403,-0.2275,-0.2342,-0.2215,-0.2084,-0.1868,-0.1767,-0.1617,-0.1487,-0.1332,-0.131,-0.1221,-0.1159,-0.1187,-0.115,-0.1235,-0.1231,-0.1355,-0.136,-0.1029,-0.1029,-0.1029,-0.1029,-0.1029,-0.1029,-0.2357,-0.2257,-0.2262,-0.2025,-0.1975,-0.1774,-0.1666,-0.1502,-0.1421,-0.1189,-0.112,-0.1116,-0.113,-0.1186,-0.1096,-0.1044,-0.107,-0.1003,-0.1059,-0.1206,-0.1241,-0.1274,-0.1288,-0.0947,-0.0947,-0.0896,-0.0896,-0.0896]},{"header":{"parameterUnit":"m.s-1","parameterCategory":2,"la1":30.2991,"la2":30.254,"lo1":-89.0895,"lo2":-89.0444,"dy":0.0017,"dx":0.0017,"nx":28,"ny":28,"refTime":"2024-05-16T09:00:00:Z","depth":"0","parameterNumber":3,"parameterNumberName":"V-component_of_CURRENTS"},"data":[0,0,0,0,0,0,0,0,0,0,0,0,0,0,0,0,0,0,0,0,0,0,0,0,0,0,0,0,0,0,0,0,0,0,0,0,0,0,0,0,0,0,0,0,0,0,0,0,0,0,0,0,0,0,0,0,0,0,0.0151,0.0152,0,0.0281,0.0283,0.0285,0.0353,0.0353,0.0353,0.0352,0.0525,0.053,0.0535,0,0,0,0,0,0,0,0,0,0,0,0,0,0.0027,0.0029,0.015,0.0152,0.0153,0.0281,0.0283,0.0285,0.0353,0.0353,0.0353,0.0352,0.0524,0.0529,0.0535,0,0,0,0,0,0,0,0,0,0,0,0,0,0.0114,0.0029,0.015,0.02,0.0206,0.028,0.0283,0.0286,0.0353,0.0353,0.0353,0.0352,0.0522,0.0529,0.0536,0.0586,0,0,0.0558,0.0561,0,0,0,0,0,0,0,0,0.0109,0.0119,0.0191,0.0197,0.0203,0.0298,0.0303,0.0387,0.0353,0.0301,0.0352,0.0352,0.0451,0.0464,0.0493,0.0594,0.0602,0.0558,0.0563,0.0566,0.0568,0,0,0,0,0,0,0,0.0103,0.0114,0.0206,0.0193,0.02,0.0239,0.025,0.0319,0.0379,0.0305,0.031,0.0319,0.0455,0.0486,0.0498,0.0604,0.0558,0.0565,0.0569,0.0572,0.0735,0.0735,0,0,0,0,0,0,0.0077,0.0108,0.0201,0.0209,0.0151,0.0241,0.0254,0.027,0.0378,0.0393,0.0319,0.0322,0.0474,0.049,0.0504,0.0542,0.0566,0.0573,0.0577,0.0735,0.0735,0.0735,0,0,0,0,0,0,0.0074,0.0085,0.0196,0.0159,0.0175,0.0242,0.026,0.0273,0.0304,0.0387,0.0404,0.0337,0.0475,0.0494,0.056,0.055,0.0576,0.0582,0.0735,0.0735,0.0735,0.0635,0,0,0,0,0,0,0.007,0.0083,0.0086,0.0157,0.0176,0.0237,0.0261,0.0276,0.0309,0.0314,0.0408,0.0424,0.0476,0.0548,0.0567,0.056,0.0588,0.0735,0.0735,0.0735,0.0638,0.0632,0.0626,0,0,0,0,0,0.0066,0.007,0.0085,0.0096,0.0178,0.0237,0.0251,0.03,0.031,0.0327,0.0383,0.0421,0.0561,0.0555,0.0576,0.0571,0.0735,0.0735,0.0735,0.0641,0.0633,0.0626,0,0,0,0,0,0,0.0014,0.008,0.0097,0.012,0.0171,0.0247,0.0263,0.0297,0.0356,0.0356,0.0432,0.0452,0.0503,0.0556,0.0546,0.0619,0.0651,0.0655,0.0572,0.0566,0.0559,0.0517,0.0594,0,0,0,0,0,0.0003,0.0025,0.0092,0.0107,0.0129,0.0195,0.0223,0.0257,0.0317,0.0343,0.0406,0.0469,0.0522,0.0557,0.0617,0.0666,0.0693,0.0675,0.0669,0.0663,0.0643,0.0679,0.0673,0.0736,0.0736,0.0736,0,0,-0.0017,0.0023,0.0032,0.0097,0.0138,0.0165,0.0212,0.0251,0.0269,0.0353,0.0397,0.0455,0.0531,0.0576,0.0603,0.0619,0.0659,0.0663,0.0657,0.0641,0.0678,0.0672,0.0666,0.0736,0.0736,0.0736,0,0,-0.0045,-0.0008,0.0,0.004,0.0098,0.0141,0.0148,0.0224,0.0253,0.0309,0.0359,0.0404,0.0507,0.0543,0.0576,0.0576,0.0625,0.0602,0.0539,0.0574,0.0568,0.0564,0.0578,0.0576,0.0599,0.0599,0.0598,0,-0.0075,-0.0055,0.0011,0.003,0.0046,0.0123,0.0127,0.0177,0.0262,0.0274,0.0309,0.0421,0.0483,0.0517,0.051,0.0559,0.0583,0.0557,0.0562,0.0559,0.0556,0.0572,0.0571,0.0594,0.0594,0.0595,0.0595,0,-0.0091,-0.0081,-0.0074,-0.0029,0.0005,0.0021,0.0089,0.0121,0.0163,0.0208,0.0258,0.0345,0.0401,0.0431,0.0471,0.0479,0.0503,0.0547,0.0571,0.0543,0.0563,0.0563,0.0587,0.0589,0.059,0.0591,0,0,-0.0151,-0.01,-0.01,-0.0109,-0.0032,-0.0016,0.0016,0.0056,0.0063,0.0145,0.0159,0.0237,0.0277,0.0315,0.0377,0.0406,0.0401,0.0455,0.046,0.0451,0.0462,0.047,0.0471,0.0449,0.0449,0.0448,0.0479,0,-0.0193,-0.0202,-0.0149,-0.0167,-0.0174,-0.0103,-0.0079,-0.0031,0.0025,0.0067,0.0141,0.019,0.0237,0.0266,0.0295,0.0397,0.0399,0.0388,0.0507,0.051,0.0506,0.0471,0.0507,0.0537,0.048,0.048,0.048,0,-0.0232,-0.0237,-0.0267,-0.0261,-0.0255,-0.0242,-0.0215,-0.0182,-0.01,-0.0053,0.0001,0.008,0.0136,0.0187,0.0292,0.0286,0.034,0.0409,0.0413,0.0451,0.0518,0.0562,0.054,0.0662,0.0481,0.0481,0.0481,0,-0.0331,-0.0327,-0.0368,-0.0362,-0.0324,-0.0328,-0.0303,-0.023,-0.0198,-0.0129,-0.0086,-0.0008,0.0058,0.0137,0.0259,0.0282,0.0374,0.0436,0.0479,0.048,0.0548,0.0556,0.0642,0.0464,0.0464,0.0464,0.0464,0,-0.0408,-0.0439,-0.0423,-0.0445,-0.0488,-0.0423,-0.0435,-0.0392,-0.0302,-0.0261,-0.0162,-0.0107,0.0051,0.0135,0.0227,0.0345,0.0343,0.0446,0.0484,0.0514,0.0518,0.0659,0.071,0.0465,0.0465,0.0464,0.0464,0,-0.0507,-0.0491,-0.0544,-0.0537,-0.0535,-0.0568,-0.051,-0.0487,-0.0408,-0.0343,-0.0317,-0.017,-0.0054,0.0076,0.0223,0.0314,0.0489,0.0443,0.0452,0.049,0.0672,0.0714,0.0797,0.0867,0.0523,0.0523,0.0524,0,-0.0557,-0.0595,-0.063,-0.0644,-0.0641,-0.0659,-0.0633,-0.0556,-0.0503,-0.038,-0.0336,-0.0219,-0.0127,0.0076,0.0253,0.0399,0.0485,0.051,0.0559,0.0663,0.0741,0.0759,0.0814,0.0612,0.0613,0.0614,0.0614,0,-0.0651,-0.0664,-0.07,-0.0737,-0.0736,-0.0741,-0.0698,-0.0671,-0.0552,-0.0495,-0.0398,-0.0328,-0.0107,0.0105,0.0302,0.0393,0.0611,0.0531,0.0655,0.0812,0.0824,0.0917,0.0596,0.0621,0.0621,0.062,0.062,0.062,-0.0706,-0.0758,-0.0786,-0.0815,-0.081,-0.0785,-0.078,-0.0711,-0.0657,-0.0527,-0.0459,-0.0311,0.0021,0.0324,0.0429,0.0705,0.0672,0.0807,0.0846,0.0852,0.0926,0.0594,0.0656,0.0656,0.0655,0.0655,0.0655,0,-0.0761,-0.0797,-0.0839,-0.0858,-0.0846,-0.0832,-0.0777,-0.0742,-0.0686,-0.055,-0.0465,-0.0088,0.0216,0.052,0.0897,0.1033,0.1073,0.1088,0.1151,0.1193,0.0925,0.0939,0.1046,0.1046,0.1046,0.1046,0.1046,0.1045,-0.0779,-0.0837,-0.0856,-0.0861,-0.0861,-0.0832,-0.0802,-0.0755,-0.0652,-0.0445,-0.0218,-0.0038,0.0408,0.0986,0.1324,0.1341,0.1475,0.1427,0.1496,0.1349,0.1327,0.1305,0.1332,0.152,0.152,0.1771,0.1773,0.1775]}],[{"header":{"parameterUnit":"m.s-1","parameterCategory":2,"la1":30.2991,"la2":30.254,"lo1":-89.0895,"lo2":-89.0444,"dy":0.0017,"dx":0.0017,"nx":28,"ny":28,"refTime":"2024-05-16T09:00:00:Z","depth":"2","parameterNumber":2,"parameterNumberName":"U-component_of_CURRENTS"},"data":[0,0,0,0,0,0,0,0,0,0,0,0,0,0,0,0,0,0,0,0,0,0,0,0,0,0,0,0,0,0,0,0,0,0,0,0,0,0,0,0,0,0,0,0,0,0,0,0,0,0,0,0,0,0,0,0,0,0,-0.1521,-0.1521,0,-0.1554,-0.1555,-0.1555,-0.1596,-0.1597,-0.1598,-0.1598,-0.1735,-0.1738,-0.1741,0,0,0,0,0,0,0,0,0,0,0,0,0,-0.1565,-0.1564,-0.1521,-0.1521,-0.1522,-0.1554,-0.1555,-0.1555,-0.1596,-0.1597,-0.1598,-0.1598,-0.1734,-0.1737,-0.1741,0,0,0,0,0,0,0,0,0,0,0,0,0,-0.1567,-0.1563,-0.1521,-0.1546,-0.1549,-0.1554,-0.1555,-0.1555,-0.1596,-0.1597,-0.1598,-0.1599,-0.1733,-0.1737,-0.1742,-0.175,0,0,-0.1755,-0.1757,0,0,0,0,0,0,0,0,-0.1567,-0.1565,-0.1542,-0.1544,-0.1547,-0.1572,-0.162,-0.1626,-0.1596,-0.1578,-0.1598,-0.1599,-0.1689,-0.1697,-0.17,-0.1757,-0.1763,-0.1756,-0.1759,-0.1761,-0.1762,0,0,0,0,0,0,0,-0.1567,-0.1565,-0.1534,-0.1542,-0.1546,-0.1581,-0.1581,-0.1621,-0.163,-0.158,-0.1583,-0.1586,-0.1692,-0.1695,-0.1704,-0.1765,-0.1756,-0.176,-0.1763,-0.1764,-0.1908,-0.191,0,0,0,0,0,0,-0.1557,-0.1564,-0.1533,-0.1535,-0.156,-0.1579,-0.1579,-0.1563,-0.1627,-0.1637,-0.1585,-0.1588,-0.1687,-0.1699,-0.1709,-0.1801,-0.1761,-0.1765,-0.1767,-0.1907,-0.1909,-0.191,0,0,0,0,0,0,-0.1557,-0.1553,-0.1532,-0.1552,-0.1552,-0.1576,-0.1558,-0.1563,-0.16,-0.163,-0.1642,-0.162,-0.1688,-0.1703,-0.1783,-0.1804,-0.1767,-0.1771,-0.1906,-0.1908,-0.1909,-0.1937,0,0,0,0,0,0,-0.1558,-0.1552,-0.1551,-0.155,-0.155,-0.1537,-0.1557,-0.1563,-0.1598,-0.1603,-0.1664,-0.1675,-0.169,-0.1776,-0.1787,-0.181,-0.1775,-0.1905,-0.1907,-0.1909,-0.1935,-0.1939,-0.1943,0,0,0,0,0,-0.1559,-0.1546,-0.155,-0.1547,-0.1541,-0.1537,-0.154,-0.1562,-0.16,-0.1603,-0.167,-0.1675,-0.1796,-0.1781,-0.1794,-0.1819,-0.1904,-0.1906,-0.1909,-0.1933,-0.1938,-0.1943,0,0,0,0,0,0,-0.1568,-0.1549,-0.1553,-0.1536,-0.1539,-0.1544,-0.1558,-0.1582,-0.1635,-0.1667,-0.1703,-0.1718,-0.1769,-0.1804,-0.1787,-0.1864,-0.1845,-0.185,-0.1859,-0.1865,-0.1869,-0.1922,-0.1778,0,0,0,0,0,-0.1566,-0.1552,-0.1543,-0.1534,-0.1537,-0.1558,-0.1569,-0.1589,-0.1628,-0.1654,-0.1705,-0.176,-0.1782,-0.1837,-0.1847,-0.1928,-0.192,-0.1947,-0.1951,-0.1955,-0.2006,-0.2036,-0.2048,-0.1918,-0.1918,-0.1918,0,0,-0.1571,-0.1558,-0.1553,-0.1536,-0.1547,-0.1588,-0.1568,-0.1594,-0.1646,-0.1663,-0.1766,-0.1762,-0.1795,-0.1849,-0.188,-0.1899,-0.1965,-0.1958,-0.1961,-0.2012,-0.204,-0.2053,-0.2064,-0.192,-0.1919,-0.1919,0,0,-0.1579,-0.156,-0.1561,-0.1581,-0.1599,-0.1615,-0.1632,-0.1663,-0.1687,-0.1762,-0.1772,-0.182,-0.1877,-0.1915,-0.1937,-0.199,-0.1953,-0.1966,-0.2082,-0.2108,-0.2119,-0.213,-0.2036,-0.2039,-0.2012,-0.2012,-0.2012,0,-0.1601,-0.1599,-0.1564,-0.1598,-0.1633,-0.1642,-0.1692,-0.1719,-0.1782,-0.1824,-0.1804,-0.1904,-0.1918,-0.2011,-0.2015,-0.2005,-0.1968,-0.2054,-0.2115,-0.2125,-0.2136,-0.2039,-0.2041,-0.2013,-0.2013,-0.2013,-0.2013,0,-0.1611,-0.1652,-0.1662,-0.1712,-0.1731,-0.1777,-0.1808,-0.1859,-0.1895,-0.1933,-0.2,-0.2012,-0.2089,-0.2069,-0.2064,-0.2145,-0.2066,-0.2076,-0.2101,-0.2151,-0.2043,-0.2045,-0.2016,-0.2015,-0.2015,-0.2014,0,0,-0.1602,-0.1658,-0.1675,-0.1747,-0.1808,-0.1838,-0.1918,-0.1989,-0.2076,-0.2111,-0.2192,-0.223,-0.2238,-0.2265,-0.2247,-0.2289,-0.2271,-0.2229,-0.2229,-0.2135,-0.2235,-0.2115,-0.2104,-0.2286,-0.2289,-0.2292,-0.2093,0,-0.165,-0.1729,-0.1733,-0.1875,-0.1952,-0.1989,-0.2069,-0.2144,-0.218,-0.2258,-0.2277,-0.2332,-0.231,-0.2327,-0.2368,-0.2285,-0.2295,-0.2319,-0.2206,-0.2202,-0.2092,-0.2112,-0.1983,-0.1794,-0.2094,-0.2095,-0.2095,0,-0.1689,-0.1754,-0.1854,-0.2007,-0.2035,-0.2111,-0.2244,-0.231,-0.2403,-0.2424,-0.2497,-0.2484,-0.2536,-0.2489,-0.2456,-0.2463,-0.2374,-0.2308,-0.2299,-0.2206,-0.2092,-0.1815,-0.1785,-0.2097,-0.2097,-0.2097,-0.2097,0,-0.1732,-0.1862,-0.1942,-0.1998,-0.2143,-0.2202,-0.2275,-0.2381,-0.2406,-0.2527,-0.2515,-0.2618,-0.2561,-0.2573,-0.2419,-0.2448,-0.231,-0.2333,-0.2138,-0.2121,-0.2007,-0.1978,-0.2331,-0.2332,-0.2332,-0.2333,-0.2333,0,-0.1813,-0.1907,-0.1983,-0.2059,-0.2181,-0.2266,-0.2372,-0.2459,-0.2513,-0.2502,-0.2597,-0.2534,-0.2576,-0.2475,-0.2429,-0.2247,-0.2319,-0.2163,-0.2099,-0.1997,-0.1972,-0.2266,-0.2261,-0.2325,-0.2327,-0.2328,-0.233,0,-0.1867,-0.1913,-0.203,-0.2164,-0.2207,-0.2292,-0.2363,-0.24,-0.2487,-0.2443,-0.2456,-0.2427,-0.2325,-0.2305,-0.2222,-0.2167,-0.2083,-0.1994,-0.1807,-0.173,-0.1867,-0.1866,-0.1813,-0.1808,-0.1803,-0.18,-0.1797,0,-0.1879,-0.1949,-0.2062,-0.2069,-0.2123,-0.2234,-0.2258,-0.2377,-0.2338,-0.2319,-0.2223,-0.2158,-0.2044,-0.1886,-0.1841,-0.1764,-0.1864,-0.157,-0.1672,-0.189,-0.1832,-0.1837,-0.1842,-0.1462,-0.1457,-0.1452,-0.1449,0,-0.1893,-0.1917,-0.1962,-0.1994,-0.2016,-0.2064,-0.2085,-0.204,-0.2087,-0.2059,-0.1907,-0.1852,-0.1704,-0.1565,-0.1484,-0.1438,-0.1616,-0.1475,-0.1765,-0.1635,-0.1551,-0.1496,-0.1514,-0.1409,-0.1413,-0.1416,-0.1418,-0.1419,-0.1816,-0.1822,-0.1823,-0.1847,-0.1859,-0.1813,-0.1766,-0.1742,-0.1683,-0.1561,-0.1567,-0.1455,-0.1442,-0.127,-0.1184,-0.1151,-0.1288,-0.127,-0.1288,-0.131,-0.1327,-0.1244,-0.1037,-0.1039,-0.1041,-0.1042,-0.1043,0,-0.1666,-0.1668,-0.1658,-0.1635,-0.1565,-0.1664,-0.1561,-0.1472,-0.1324,-0.1295,-0.1218,-0.1072,-0.0974,-0.099,-0.0872,-0.0854,-0.0899,-0.0831,-0.0902,-0.0941,-0.0975,-0.0982,-0.0597,-0.0596,-0.0594,-0.0593,0,0,-0.1568,-0.1492,-0.1494,-0.1331,-0.132,-0.1185,-0.1095,-0.1021,-0.0958,-0.0855,-0.0826,-0.0891,-0.0932,-0.0752,-0.0721,-0.0632,-0.0784,-0.0602,-0.0958,-0.1077,-0.111,-0.122,-0.1271,0,0,0,0,0]},{"header":{"parameterUnit":"m.s-1","parameterCategory":2,"la1":30.2991,"la2":30.254,"lo1":-89.0895,"lo2":-89.0444,"dy":0.0017,"dx":0.0017,"nx":28,"ny":28,"refTime":"2024-05-16T09:00:00:Z","depth":"2","parameterNumber":3,"parameterNumberName":"V-component_of_CURRENTS"},"data":[0,0,0,0,0,0,0,0,0,0,0,0,0,0,0,0,0,0,0,0,0,0,0,0,0,0,0,0,0,0,0,0,0,0,0,0,0,0,0,0,0,0,0,0,0,0,0,0,0,0,0,0,0,0,0,0,0,0,-0.0386,-0.0385,0,-0.0262,-0.026,-0.0259,-0.0185,-0.0185,-0.0185,-0.0185,0.0109,0.0116,0.0124,0,0,0,0,0,0,0,0,0,0,0,0,0,-0.0418,-0.0419,-0.0386,-0.0385,-0.0383,-0.0262,-0.026,-0.0258,-0.0185,-0.0185,-0.0185,-0.0185,0.0106,0.0115,0.0124,0,0,0,0,0,0,0,0,0,0,0,0,0,-0.036,-0.0419,-0.0387,-0.0333,-0.0327,-0.0262,-0.026,-0.0258,-0.0186,-0.0185,-0.0185,-0.0185,0.0103,0.0114,0.0126,0.0189,0,0,0.016,0.0165,0,0,0,0,0,0,0,0,-0.0363,-0.0359,-0.0342,-0.0336,-0.033,-0.0239,-0.0164,-0.01,-0.0186,-0.0238,-0.0185,-0.0184,0.0007,0.0026,0.0048,0.0203,0.0215,0.0161,0.0168,0.0173,0.0176,0,0,0,0,0,0,0,-0.0368,-0.0363,-0.0336,-0.0341,-0.0333,-0.0266,-0.0259,-0.0151,-0.0115,-0.0234,-0.0228,-0.0216,0.0012,0.0036,0.0056,0.0219,0.0161,0.0171,0.0178,0.0183,0.0447,0.0447,0,0,0,0,0,0,-0.0393,-0.0368,-0.034,-0.0332,-0.0347,-0.0267,-0.0258,-0.0268,-0.012,-0.0099,-0.0216,-0.0213,0.0017,0.0042,0.0067,0.0167,0.0173,0.0184,0.019,0.0447,0.0447,0.0447,0,0,0,0,0,0,-0.0395,-0.0393,-0.0345,-0.0346,-0.0335,-0.0268,-0.0278,-0.0266,-0.0219,-0.0109,-0.0084,-0.0181,0.0018,0.0051,0.0177,0.0178,0.0189,0.0199,0.0446,0.0447,0.0447,0.0358,0,0,0,0,0,0,-0.0396,-0.0395,-0.0393,-0.0349,-0.0336,-0.0304,-0.0278,-0.0264,-0.0214,-0.0208,-0.007,-0.0044,0.0021,0.016,0.0189,0.0194,0.0208,0.0446,0.0447,0.0447,0.0361,0.0355,0.0351,0,0,0,0,0,-0.0398,-0.041,-0.0394,-0.0389,-0.0344,-0.0304,-0.029,-0.0239,-0.0213,-0.0195,-0.0097,-0.0047,0.0181,0.0171,0.0204,0.0213,0.0446,0.0446,0.0447,0.0363,0.0356,0.0351,0,0,0,0,0,0,-0.0425,-0.0403,-0.0384,-0.0389,-0.0345,-0.0291,-0.0268,-0.0229,-0.014,-0.012,-0.0018,0.0015,0.0103,0.0184,0.0169,0.0286,0.0312,0.0319,0.0237,0.0232,0.0227,0.0218,0.0218,0,0,0,0,0,-0.0432,-0.0431,-0.0395,-0.0391,-0.0376,-0.0315,-0.0285,-0.0248,-0.0174,-0.0136,-0.0039,0.006,0.0127,0.0202,0.0272,0.0378,0.0416,0.0396,0.0391,0.0386,0.04,0.0463,0.0464,0.0448,0.0448,0.0448,0,0,-0.0439,-0.0425,-0.0423,-0.0395,-0.0358,-0.032,-0.0296,-0.0252,-0.0208,-0.0112,-0.0009,0.0045,0.0144,0.0223,0.0273,0.0304,0.04,0.0387,0.0382,0.0399,0.0463,0.0465,0.0466,0.0449,0.0449,0.0449,0,0,-0.0446,-0.0445,-0.0437,-0.04,-0.0347,-0.0314,-0.0299,-0.023,-0.0193,-0.0092,-0.0044,0.0025,0.0175,0.0224,0.0271,0.0296,0.0349,0.031,0.0315,0.0373,0.0375,0.0377,0.0376,0.0379,0.0335,0.0334,0.0334,0,-0.0443,-0.0444,-0.0424,-0.0393,-0.0372,-0.0311,-0.0289,-0.0232,-0.0123,-0.0095,-0.0064,0.0095,0.017,0.025,0.024,0.0285,0.031,0.0325,0.0365,0.0369,0.0373,0.0372,0.0376,0.033,0.0331,0.0331,0.0332,0,-0.0443,-0.0422,-0.0416,-0.0366,-0.0339,-0.0311,-0.0251,-0.0196,-0.0144,-0.0092,-0.0011,0.0083,0.0178,0.0192,0.0233,0.0286,0.0286,0.0324,0.0375,0.0369,0.0367,0.0373,0.0324,0.0326,0.0327,0.0328,0,0,-0.0472,-0.0429,-0.0419,-0.0401,-0.0331,-0.0315,-0.0248,-0.0196,-0.0146,-0.0052,0.0011,0.0093,0.0131,0.0186,0.0234,0.0295,0.0309,0.0323,0.0328,0.0309,0.0398,0.039,0.0396,0.0358,0.036,0.0362,0.0367,0,-0.0468,-0.0455,-0.0422,-0.0379,-0.0369,-0.0306,-0.0251,-0.0186,-0.0121,-0.0032,0.0042,0.0114,0.0135,0.0172,0.0234,0.0296,0.0331,0.0302,0.042,0.0422,0.0408,0.0407,0.039,0.0395,0.0373,0.0374,0.0375,0,-0.0462,-0.0462,-0.046,-0.0411,-0.04,-0.036,-0.0299,-0.0235,-0.0111,-0.0057,0.003,0.0097,0.0181,0.0208,0.0316,0.0297,0.0336,0.0381,0.0384,0.0423,0.0429,0.0411,0.0407,0.0386,0.0385,0.0384,0.0383,0,-0.0523,-0.0475,-0.0499,-0.0479,-0.0412,-0.0397,-0.0355,-0.0253,-0.0204,-0.0077,-0.0027,0.0092,0.0153,0.0241,0.0305,0.0323,0.0415,0.0458,0.0477,0.0474,0.051,0.0508,0.0528,0.0528,0.0528,0.0528,0.0528,0,-0.0539,-0.0536,-0.0529,-0.0532,-0.0534,-0.0459,-0.0421,-0.0353,-0.0232,-0.0174,-0.0054,0.0002,0.0168,0.0238,0.0305,0.0391,0.0409,0.0476,0.0492,0.0472,0.0467,0.0517,0.0516,0.0528,0.0528,0.0528,0.0528,0,-0.058,-0.0573,-0.0592,-0.057,-0.0563,-0.0566,-0.0491,-0.0437,-0.033,-0.0244,-0.0212,-0.0062,0.0036,0.0161,0.0298,0.0377,0.0464,0.0477,0.0407,0.0417,0.0483,0.0477,0.0541,0.0541,0.0541,0.0542,0.0542,0,-0.0601,-0.0621,-0.0658,-0.0674,-0.0666,-0.0649,-0.0616,-0.0508,-0.0445,-0.0306,-0.0267,-0.015,-0.0056,0.0129,0.0284,0.0415,0.0421,0.0467,0.0524,0.0483,0.0492,0.0486,0.048,0.0506,0.0506,0.0506,0.0506,0,-0.0638,-0.0666,-0.0698,-0.0752,-0.0753,-0.0735,-0.0683,-0.0653,-0.0507,-0.0441,-0.0348,-0.0269,-0.0065,0.0112,0.0295,0.0364,0.0462,0.047,0.0469,0.0508,0.0452,0.046,0.0455,0.0504,0.0504,0.0505,0.0505,0.0505,-0.0671,-0.0721,-0.0773,-0.0813,-0.0817,-0.0792,-0.0767,-0.0696,-0.0622,-0.0478,-0.0421,-0.0269,-0.0079,0.021,0.0321,0.0443,0.0462,0.0517,0.0517,0.0518,0.0515,0.0464,0.0514,0.0514,0.0514,0.0514,0.0514,0,-0.0697,-0.0754,-0.0811,-0.0852,-0.0849,-0.0836,-0.0774,-0.0718,-0.0647,-0.0521,-0.0413,-0.0207,0.0004,0.0182,0.0389,0.0515,0.0513,0.0522,0.0513,0.0513,0.0514,0.0511,0.0508,0.0509,0.0509,0.0509,0,0,-0.0712,-0.0786,-0.0827,-0.0852,-0.0861,-0.082,-0.0781,-0.072,-0.0614,-0.0499,-0.0369,-0.019,0.0031,0.0182,0.0327,0.0429,0.0436,0.0427,0.0419,0.039,0.0389,0.0497,0.0492,0,0,0,0,0]}],[{"header":{"parameterUnit":"m.s-1","parameterCategory":2,"la1":30.2991,"la2":30.254,"lo1":-89.0895,"lo2":-89.0444,"dy":0.0017,"dx":0.0017,"nx":28,"ny":28,"refTime":"2024-05-16T09:00:00:Z","depth":"4","parameterNumber":2,"parameterNumberName":"U-component_of_CURRENTS"},"data":[0,0,0,0,0,0,0,0,0,0,0,0,0,0,0,0,0,0,0,0,0,0,0,0,0,0,0,0,0,0,0,0,0,0,0,0,0,0,0,0,0,0,0,0,0,0,0,0,0,0,0,0,0,0,0,0,0,0,-0.0451,-0.0452,0,-0.0506,-0.0507,-0.0507,-0.0544,-0.0544,-0.0544,-0.0545,-0.0617,-0.0619,-0.062,0,0,0,0,0,0,0,0,0,0,0,0,0,-0.0366,-0.0367,-0.0451,-0.0452,-0.0452,-0.0506,-0.0507,-0.0508,-0.0544,-0.0544,-0.0545,-0.0545,-0.0616,-0.0618,-0.062,0,0,0,0,0,0,0,0,0,0,0,0,0,-0.041,-0.0368,-0.0451,-0.0477,-0.048,-0.0506,-0.0507,-0.0508,-0.0544,-0.0544,-0.0545,-0.0545,-0.0616,-0.0618,-0.0621,-0.0628,0,0,-0.0628,-0.0629,0,0,0,0,0,0,0,0,-0.0407,-0.0413,-0.0473,-0.0475,-0.0479,-0.0519,-0.0503,-0.0549,-0.0544,-0.0519,-0.0545,-0.0545,-0.0586,-0.0591,-0.0599,-0.0631,-0.0634,-0.0628,-0.063,-0.0631,-0.0632,0,0,0,0,0,0,0,-0.0404,-0.0411,-0.0473,-0.0473,-0.0477,-0.0482,-0.0489,-0.0512,-0.055,-0.0522,-0.0524,-0.0531,-0.0587,-0.0597,-0.0601,-0.0636,-0.0628,-0.0631,-0.0632,-0.0633,-0.0755,-0.0757,0,0,0,0,0,0,-0.0399,-0.0408,-0.0471,-0.0474,-0.0444,-0.0484,-0.0491,-0.0505,-0.0549,-0.0556,-0.053,-0.0532,-0.0592,-0.0598,-0.0604,-0.0717,-0.0631,-0.0633,-0.0635,-0.0754,-0.0756,-0.0758,0,0,0,0,0,0,-0.0397,-0.0404,-0.0469,-0.0442,-0.0451,-0.0485,-0.05,-0.0506,-0.0533,-0.0556,-0.0563,-0.0553,-0.0593,-0.0601,-0.0652,-0.0716,-0.0635,-0.0637,-0.0752,-0.0754,-0.0757,-0.0877,0,0,0,0,0,0,-0.0394,-0.0403,-0.0414,-0.0442,-0.0452,-0.049,-0.05,-0.0507,-0.0535,-0.0539,-0.0577,-0.0583,-0.0594,-0.0649,-0.0655,-0.0718,-0.0639,-0.0749,-0.0753,-0.0756,-0.0871,-0.0883,-0.0894,0,0,0,0,0,-0.0391,-0.0402,-0.0415,-0.0422,-0.0466,-0.0491,-0.0496,-0.0521,-0.0536,-0.0547,-0.0587,-0.0583,-0.0674,-0.0652,-0.0659,-0.0724,-0.0748,-0.0752,-0.0756,-0.0866,-0.0881,-0.0894,0,0,0,0,0,0,-0.0373,-0.0408,-0.0422,-0.0445,-0.0469,-0.0497,-0.0513,-0.053,-0.057,-0.0578,-0.0605,-0.0614,-0.0689,-0.0677,-0.0653,-0.0765,-0.071,-0.0716,-0.0791,-0.0806,-0.0817,-0.0839,-0.0641,0,0,0,0,0,-0.0373,-0.0391,-0.0424,-0.0442,-0.0459,-0.0489,-0.0505,-0.052,-0.0555,-0.0573,-0.0614,-0.0653,-0.0706,-0.0731,-0.0764,-0.0819,-0.0785,-0.0863,-0.0875,-0.0885,-0.0906,-0.0887,-0.0899,-0.077,-0.077,-0.077,0,0,-0.0372,-0.0392,-0.0404,-0.0439,-0.0464,-0.0494,-0.0501,-0.0526,-0.0566,-0.0574,-0.0655,-0.0698,-0.0729,-0.0806,-0.0837,-0.0807,-0.0903,-0.089,-0.0899,-0.0914,-0.0892,-0.0905,-0.0916,-0.0773,-0.0773,-0.0772,0,0,-0.0368,-0.0399,-0.0411,-0.0439,-0.0472,-0.0497,-0.0509,-0.0557,-0.0595,-0.0664,-0.0698,-0.0772,-0.084,-0.0889,-0.0918,-0.1004,-0.0967,-0.1022,-0.1104,-0.1086,-0.1096,-0.1105,-0.1076,-0.1081,-0.1026,-0.1026,-0.1026,0,-0.0366,-0.0388,-0.0418,-0.0441,-0.0467,-0.0505,-0.0528,-0.0578,-0.0641,-0.0684,-0.07,-0.0853,-0.0882,-0.0991,-0.1047,-0.1035,-0.1014,-0.1054,-0.1102,-0.111,-0.1117,-0.1084,-0.1088,-0.1032,-0.1031,-0.1031,-0.103,0,-0.0372,-0.0399,-0.0413,-0.0461,-0.0491,-0.0516,-0.0582,-0.0632,-0.0693,-0.0751,-0.088,-0.0949,-0.1044,-0.1075,-0.1105,-0.1196,-0.1162,-0.112,-0.1067,-0.1137,-0.1098,-0.11,-0.1041,-0.1039,-0.1037,-0.1035,0,0,-0.0345,-0.0404,-0.0408,-0.0431,-0.0502,-0.0522,-0.0603,-0.0682,-0.0734,-0.0855,-0.0931,-0.1099,-0.1168,-0.1207,-0.126,-0.1274,-0.132,-0.1247,-0.1243,-0.1221,-0.1283,-0.1233,-0.1229,-0.1292,-0.1293,-0.1294,-0.1234,0,-0.0341,-0.036,-0.0409,-0.0455,-0.0474,-0.0549,-0.0614,-0.0695,-0.0783,-0.0868,-0.0995,-0.1098,-0.121,-0.1267,-0.1325,-0.1297,-0.1334,-0.1341,-0.1216,-0.1213,-0.1163,-0.1233,-0.1298,-0.1236,-0.1236,-0.1236,-0.1236,0,-0.0331,-0.0341,-0.0366,-0.0435,-0.0455,-0.0516,-0.061,-0.0685,-0.0819,-0.0885,-0.1048,-0.1126,-0.1259,-0.129,-0.1368,-0.1371,-0.1376,-0.1349,-0.1343,-0.1261,-0.1168,-0.1151,-0.1239,-0.1239,-0.1239,-0.1239,-0.1238,0,-0.0259,-0.032,-0.033,-0.0357,-0.0442,-0.0502,-0.0585,-0.0708,-0.0759,-0.0923,-0.095,-0.1131,-0.1199,-0.1251,-0.1336,-0.1326,-0.1348,-0.1286,-0.1255,-0.1249,-0.1255,-0.1246,-0.1333,-0.1333,-0.1334,-0.1334,-0.1334,0,-0.0225,-0.0246,-0.0312,-0.0325,-0.0365,-0.0473,-0.0547,-0.0652,-0.0762,-0.0839,-0.0997,-0.1076,-0.1194,-0.1253,-0.1303,-0.1322,-0.134,-0.1294,-0.1243,-0.1305,-0.1303,-0.1255,-0.1247,-0.1331,-0.1332,-0.1332,-0.1333,0,-0.0161,-0.0193,-0.022,-0.0305,-0.0336,-0.0393,-0.0515,-0.0561,-0.0692,-0.0783,-0.0833,-0.1002,-0.1102,-0.1197,-0.1241,-0.1256,-0.1258,-0.127,-0.1354,-0.1304,-0.1162,-0.1161,-0.1149,-0.1147,-0.1145,-0.1144,-0.1143,0,-0.0136,-0.0129,-0.0185,-0.0189,-0.0251,-0.0331,-0.0371,-0.0523,-0.0589,-0.0766,-0.0803,-0.0927,-0.1053,-0.1083,-0.1185,-0.1227,-0.1252,-0.1218,-0.1201,-0.1198,-0.1149,-0.1151,-0.1152,-0.114,-0.114,-0.1139,-0.1139,0,-0.0085,-0.0103,-0.0111,-0.0111,-0.0161,-0.0206,-0.0323,-0.0354,-0.0551,-0.0602,-0.0777,-0.0868,-0.0967,-0.1062,-0.1127,-0.117,-0.1199,-0.12,-0.1202,-0.1185,-0.1186,-0.1141,-0.1143,-0.1133,-0.1134,-0.1134,-0.1135,0,-0.0056,-0.0041,-0.0036,-0.0054,-0.0074,-0.015,-0.0211,-0.0333,-0.0417,-0.0637,-0.0695,-0.0868,-0.0982,-0.1035,-0.1105,-0.1132,-0.1093,-0.1042,-0.1051,-0.1058,-0.1066,-0.1057,-0.0939,0,0,0,0,0,-0.002,0.0,0.002,-0.0016,-0.003,-0.008,-0.0189,-0.0265,-0.0431,-0.0529,-0.0627,-0.0751,-0.0877,-0.0957,-0.0965,-0.1025,-0.1075,-0.1025,-0.1014,-0.1101,-0.1108,-0.1131,0,0,0,0,0,0,-0.0003,0.0028,0.0037,0.0022,-0.0002,-0.0063,-0.0157,-0.0275,-0.0356,-0.0509,-0.0589,-0.0666,-0.0797,-0.0862,-0.0939,-0.0955,-0.0925,-0.1104,-0.1101,-0.1097,-0.1103,-0.1109,-0.1135,0,0,0,0,0]},{"header":{"parameterUnit":"m.s-1","parameterCategory":2,"la1":30.2991,"la2":30.254,"lo1":-89.0895,"lo2":-89.0444,"dy":0.0017,"dx":0.0017,"nx":28,"ny":28,"refTime":"2024-05-16T09:00:00:Z","depth":"4","parameterNumber":3,"parameterNumberName":"V-component_of_CURRENTS"},"data":[0,0,0,0,0,0,0,0,0,0,0,0,0,0,0,0,0,0,0,0,0,0,0,0,0,0,0,0,0,0,0,0,0,0,0,0,0,0,0,0,0,0,0,0,0,0,0,0,0,0,0,0,0,0,0,0,0,0,-0.0303,-0.0303,0,-0.0327,-0.0327,-0.0327,-0.0312,-0.0311,-0.0311,-0.031,-0.0298,-0.0298,-0.0299,0,0,0,0,0,0,0,0,0,0,0,0,0,-0.029,-0.029,-0.0303,-0.0303,-0.0304,-0.0327,-0.0327,-0.0327,-0.0312,-0.0311,-0.031,-0.0309,-0.0298,-0.0298,-0.0299,0,0,0,0,0,0,0,0,0,0,0,0,0,-0.0303,-0.029,-0.0303,-0.0298,-0.0298,-0.0326,-0.0327,-0.0327,-0.0312,-0.0311,-0.031,-0.0309,-0.0298,-0.0298,-0.0299,-0.0326,0,0,-0.0301,-0.0301,0,0,0,0,0,0,0,0,-0.0303,-0.0304,-0.0299,-0.0299,-0.0298,-0.0315,-0.0318,-0.0325,-0.0313,-0.0308,-0.031,-0.0308,-0.0301,-0.0301,-0.031,-0.0326,-0.0325,-0.0301,-0.0301,-0.0302,-0.0302,0,0,0,0,0,0,0,-0.0302,-0.0303,-0.0313,-0.0299,-0.0299,-0.031,-0.031,-0.032,-0.031,-0.0308,-0.0307,-0.0309,-0.03,-0.0309,-0.0309,-0.0325,-0.0301,-0.0301,-0.0302,-0.0302,-0.0357,-0.0359,0,0,0,0,0,0,-0.0296,-0.0302,-0.0312,-0.0314,-0.0297,-0.0311,-0.0311,-0.0311,-0.0311,-0.031,-0.031,-0.0308,-0.0309,-0.0308,-0.0309,-0.0333,-0.0302,-0.0302,-0.0303,-0.0356,-0.0358,-0.0359,0,0,0,0,0,0,-0.0296,-0.0297,-0.0312,-0.0308,-0.031,-0.0312,-0.0312,-0.0312,-0.0321,-0.0312,-0.031,-0.0318,-0.0308,-0.0308,-0.0324,-0.0332,-0.0302,-0.0303,-0.0355,-0.0357,-0.0358,-0.0386,0,0,0,0,0,0,-0.0295,-0.0297,-0.0301,-0.0308,-0.031,-0.0336,-0.0313,-0.0314,-0.0323,-0.0321,-0.0319,-0.0317,-0.0307,-0.0323,-0.0324,-0.0332,-0.0303,-0.0354,-0.0356,-0.0358,-0.0383,-0.0388,-0.0392,0,0,0,0,0,-0.0295,-0.0304,-0.0301,-0.0302,-0.0314,-0.0337,-0.034,-0.0338,-0.0325,-0.0339,-0.0335,-0.0317,-0.0336,-0.0325,-0.0326,-0.0334,-0.0353,-0.0355,-0.0358,-0.0381,-0.0387,-0.0392,0,0,0,0,0,0,-0.03,-0.0304,-0.03,-0.0309,-0.0325,-0.0334,-0.0347,-0.0344,-0.0354,-0.0351,-0.0336,-0.0335,-0.0352,-0.0346,-0.0333,-0.0358,-0.034,-0.0343,-0.0358,-0.0363,-0.0367,-0.037,-0.0304,0,0,0,0,0,-0.0303,-0.0311,-0.032,-0.0329,-0.0338,-0.0344,-0.0354,-0.0355,-0.0362,-0.0365,-0.0365,-0.0364,-0.0366,-0.0365,-0.0374,-0.039,-0.0346,-0.0396,-0.04,-0.0403,-0.0408,-0.0379,-0.0381,-0.0367,-0.0367,-0.0367,0,0,-0.0309,-0.0311,-0.0317,-0.0331,-0.0342,-0.0376,-0.0348,-0.0369,-0.04,-0.0363,-0.0403,-0.0385,-0.0376,-0.0393,-0.0399,-0.0386,-0.0373,-0.0407,-0.0409,-0.0412,-0.0382,-0.0383,-0.0384,-0.0369,-0.0368,-0.0368,0,0,-0.0333,-0.0327,-0.0348,-0.037,-0.039,-0.0398,-0.0406,-0.0424,-0.0433,-0.0465,-0.0442,-0.0437,-0.0448,-0.0441,-0.0437,-0.0475,-0.0403,-0.0465,-0.0482,-0.0454,-0.0454,-0.0454,-0.0344,-0.0334,-0.046,-0.046,-0.046,0,-0.0339,-0.0368,-0.036,-0.0396,-0.0423,-0.0413,-0.0458,-0.0472,-0.0494,-0.0502,-0.0485,-0.0486,-0.0478,-0.0484,-0.0484,-0.0486,-0.0419,-0.0459,-0.0457,-0.0457,-0.0456,-0.0344,-0.0333,-0.0462,-0.0462,-0.0462,-0.0462,0,-0.0386,-0.0418,-0.0435,-0.0476,-0.0504,-0.054,-0.0562,-0.0583,-0.0583,-0.0585,-0.0593,-0.0572,-0.0565,-0.0555,-0.0525,-0.0514,-0.0446,-0.0468,-0.0439,-0.0459,-0.0339,-0.0326,-0.0464,-0.0464,-0.0463,-0.0463,0,0,-0.0378,-0.0454,-0.0462,-0.0503,-0.0554,-0.058,-0.0632,-0.0668,-0.0684,-0.0686,-0.0697,-0.0685,-0.064,-0.0633,-0.0589,-0.0551,-0.0467,-0.0493,-0.049,-0.0371,-0.0321,-0.0308,-0.0292,-0.0472,-0.0472,-0.0472,-0.0216,0,-0.042,-0.0499,-0.0532,-0.0619,-0.0664,-0.0689,-0.0736,-0.0762,-0.0762,-0.0768,-0.0731,-0.0724,-0.068,-0.065,-0.0611,-0.0506,-0.0444,-0.0529,-0.033,-0.0323,-0.0302,-0.0284,-0.047,-0.0207,-0.0204,-0.0202,-0.02,0,-0.0459,-0.0507,-0.0603,-0.0688,-0.071,-0.0771,-0.0825,-0.0864,-0.0865,-0.0853,-0.0828,-0.078,-0.0712,-0.0687,-0.0513,-0.0554,-0.0441,-0.0357,-0.0346,-0.0325,-0.0291,-0.0198,-0.0177,-0.0179,-0.0181,-0.0182,-0.0184,0,-0.0452,-0.0556,-0.0636,-0.0672,-0.0766,-0.0822,-0.0868,-0.0895,-0.0894,-0.0901,-0.0851,-0.0805,-0.0718,-0.0624,-0.0433,-0.046,-0.0218,-0.0251,-0.0127,-0.012,-0.0193,-0.0196,-0.0148,-0.0149,-0.0149,-0.015,-0.0151,0,-0.0478,-0.0544,-0.065,-0.0696,-0.0783,-0.0847,-0.0906,-0.0941,-0.0935,-0.0897,-0.0883,-0.0799,-0.0693,-0.0536,-0.0419,-0.0203,-0.0205,-0.0113,-0.0072,-0.0201,-0.021,-0.0179,-0.0186,-0.014,-0.0142,-0.0144,-0.0146,0,-0.0465,-0.0539,-0.0634,-0.0748,-0.079,-0.0854,-0.0918,-0.0915,-0.0926,-0.0866,-0.085,-0.0737,-0.0552,-0.0415,-0.0214,-0.0141,0.0013,0.0084,0.0013,0.0044,0.0102,0.009,0.024,0.0242,0.0244,0.0246,0.0247,0,-0.0467,-0.0518,-0.0651,-0.0698,-0.0767,-0.0851,-0.0871,-0.0914,-0.0882,-0.0802,-0.0737,-0.0574,-0.0484,-0.0159,-0.0071,0.0139,0.0143,0.0244,0.0088,0.0108,0.0134,0.0119,0.0106,0.025,0.0251,0.0251,0.0251,0,-0.0461,-0.0517,-0.0579,-0.0662,-0.0725,-0.077,-0.0809,-0.0779,-0.0772,-0.0754,-0.0602,-0.0484,-0.0267,-0.0119,0.0057,0.0186,0.0167,0.0262,0.0258,0.0112,0.0121,0.0142,0.0126,0.0258,0.0257,0.0256,0.0256,0,-0.0443,-0.0475,-0.0542,-0.0621,-0.0664,-0.0678,-0.0723,-0.0673,-0.0651,-0.0576,-0.0512,-0.0358,-0.0272,-0.0085,0.0069,0.0193,0.0189,0.0198,0.0196,0.019,0.0051,0.0047,0.0212,0,0,0,0,0,-0.041,-0.0437,-0.0487,-0.057,-0.0592,-0.0633,-0.0647,-0.067,-0.0651,-0.0528,-0.0531,-0.0354,-0.015,-0.0068,0.0063,0.0078,0.02,0.0231,0.0206,0.0293,0.0286,0.0124,0,0,0,0,0,0,-0.0398,-0.0431,-0.0462,-0.048,-0.052,-0.0546,-0.056,-0.057,-0.0513,-0.0488,-0.0374,-0.0335,-0.0134,-0.0217,0.0064,0.0098,0.0096,0.0319,0.0321,0.0297,0.0291,0.0285,0.0116,0,0,0,0,0]}]]